Regional Weather Roundup
Issued by NWS

Home | Current Version | Previous Version | Graphics & Text | Print | Product List | Glossary On
Versions: 1 2 3 4 5 6 7 8 9 10 11 12 13 14 15 16 17 18 19 20 21 22 23 24 25 26 27 28
000
ASUS45 KBOI 241810
RWRID

IDAHO REGIONAL WEATHER ROUNDUP
NATIONAL WEATHER SERVICE BOISE ID
1100 AM MST FRI FEB 24 2017

NOTE: "FAIR" INDICATES FEW OR NO CLOUDS BELOW 12000 FEET
WITH NO SIGNIFICANT WEATHER AND/OR OBSTRUCTIONS TO VISIBILITY

IDZ012-014-241900-
SOUTHWEST IDAHO


CITY           SKY/WX    TMP DP  RH WIND       PRES   REMARKS
BOISE          NOT AVBL
CALDWELL       SUNNY     35  16  45 W14       30.16R WCI  26
MOUNTAIN HOME  SUNNY     33  17  50 NW18G25   30.11R WCI  22
$$

IDZ016-017-241900-
SOUTHCENTRAL IDAHO


CITY           SKY/WX    TMP DP  RH WIND       PRES   REMARKS
BURLEY         FLURRIES  27  14  58 W24       30.06R WCI  12
JEROME           N/A    N/A N/A N/A MISG      30.06R
TWIN FALLS     SUNNY     22  13  68 SW20      30.07R WCI   7
$$

IDZ019>023-241900-
SOUTHEAST IDAHO


CITY           SKY/WX    TMP DP  RH WIND       PRES   REMARKS
IDAHO FALLS    LGT SNOW  19  18  95 SW22G33   29.99R FOG     WCI   2
POCATELLO      LGT SNOW  21  17  84 SW21      30.05R VSB 3/4 WCI   5
REXBURG        LGT SNOW  20  17  88 S14       29.98R VSB 3/4 WCI   7
$$

IDZ006-010-011-018-031-032-241900-
CENTRAL IDAHO MOUNTAINS


CITY           SKY/WX    TMP DP  RH WIND       PRES   REMARKS
MCCALL         MOSUNNY   21   9  59 SW5       29.98R WCI  15
HAILEY         LGT SNOW  21  19  93 E5        29.95R WCI  15
STANLEY          N/A     17   9  70 NW6       29.90R WCI   9
SALMON         CLOUDY    28  18  64 CALM      29.99S
CHALLIS        PTSUNNY   26  13  57 N5        29.93S WCI  20
$$

IDZ002-004-006-007-026-241900-
NORTHERN IDAHO


CITY           SKY/WX    TMP DP  RH WIND       PRES   REMARKS
LEWISTON       SUNNY     35  26  69 NE7       30.19S WCI  29
LOWELL           N/A     35  24  64 CALM      30.21S
COEUR D`ALENE  PTSUNNY   26  22  84 NE6       30.17R WCI  19
MULLAN PASS    MOSUNNY   18  15  88 VRB5      29.95S WCI  11
$$




USA.gov is the U.S. government's official web portal to all federal, state and local government web resources and services.